"SCET";"TARGET";"ELECTRON_DENSITY";"ERROR_FLAG";"ELECTRON_DENSITY_ERROR";"FREQ_FCE";"MEASURED_VALUE";"MEASURED_ITEM";"FREQ_PLASMA";"FREQ_UPPER_HYBRID";"FREQ_R_EQUALS_ZERO";"FREQ_L_EQUALS_ZERO";"ORBIT_NUMBER";"SATURN_RADIUS";"SATURN_IAU_LONGITUDE";"SATURN_SLS4_S_LONGITUDE";"SATURN_SLS4_N_LONGITUDE";"SATURN_SLS5_S_LONGITUDE";"SATURN_SLS5_N_LONGITUDE";"SATURN_LOCAL_TIME";"SATURN_KRONOGRAPHIC_LATITUDE";"SATURN_MAGNETIC_LATITUDE";"SATURN_L";"SATURN_L_OFFSET";"SATURN_SOLAR_EQUATORIAL_X";"SATURN_SOLAR_EQUATORIAL_Y";"SATURN_SOLAR_EQUATORIAL_Z";"SATURN_ALTITUDE";"ENCELADUS_ENCOUNTER_NUMBER";"ENCELADUS_RADIUS";"ENCELADUS_COROTATIONAL_X";"ENCELADUS_COROTATIONAL_Y";"ENCELADUS_COROTATIONAL_Z";"ENCELADUS_TRUE_ANOMALY";"ENCELADUS_PERIAPSIS_TIME";"JUPITER_RADIUS";"JUPITER_SYSTEMIII_LONGITUDE";"JUPITER_MAGNETIC_LATITUDE";"JUPITER_MAGNETIC_LOCAL_TIME";"JUPITER_L";"IO_PHASE";"EARTH_RADIUS";"EARTH_MAGNETIC_LATITUDE";"EARTH_LOCAL_TIME";"EARTH_L"
"[UTC]";"[0=Saturn, 1=Enceladus, 2=Jupiter, 3=Earth]";"[cm-3]";"[0=automated, 1=manual]";"[normalized density error]";"[Hz]";"[Hz]";"[0=upper hybrid frequency, 1=plasma frequency cutoff]";"[Hz]";"[Hz]";"[Hz]";"[Hz}";"[0, A, B, C, 3, 4, ... , 292, 293]";"[Rs where 1Rs=60268km]";"[degrees]";"[degrees]";"[degrees]";"[degrees]";"[degrees]";"[hours]";"[degrees]";"[degrees where offset=2293km north]";"[Rs where 1Rs=60268km]";"[Rs where 1Rs=60268km and offset=2293km north]";"[Rs where 1Rs=60268km]";"[Rs where 1Rs=60268km]";"[Rs where 1Rs=60268km]";"[km where ellipsoid a,b=60268km and c=54364km]";"[E0, E1, E2, ... , E21, E22]";"[Renc where 1Renc=252.1km]";"[Renc where 1Renc=252.1km]";"[Renc where 1Renc=252.1km]";"[Renc where 1Renc=252.1km]";"[degrees]";"[UTC]";"[Rj where 1Rj=71492km]";"[degrees]";"[degrees using JRM09 model]";"[hours using JRM09 model]";"[Rj where 1Rj=71492km]";"[degrees]";"[Re where 1Re=6378.1366km]";"[degrees]";"[hours]";"[Re where 1Re=6378.1366km]"
2008-10-31T16:46:07.193Z;1;1.0260e+01;0;     0.251;  8920.632;  30117.182; 0;  28765.725;  30117.182;  33569.789;  24649.156; 91;   4.006;  50.367; 112.101;  96.849;  49.890;  78.651;  22.370;   6.364;   5.822;   4.056;   3.998;  -3.625;   1.648;   0.444;;E06; 121.012;  57.994;  -1.397; 106.198; 185.752;2008-10-30T23:47:36.000;;;;;;;;;;
2008-10-31T16:46:23.193Z;1;9.9860e+00;0;     0.188;  8920.632;  29746.527; 0;  28377.424;  29746.527;  33186.133;  24265.502; 91;   4.006;  50.500; 112.232;  96.984;  50.020;  78.784;  22.371;   6.305;   5.763;   4.055;   3.998;  -3.625;   1.647;   0.440;;E06; 119.892;  57.470;  -1.431; 105.208; 185.800;2008-10-30T23:47:36.000;;;;;;;;;;
2008-10-31T16:46:31.193Z;1;9.8940e+00;0;     0.186;  8920.632;  29621.711; 0;  28246.559;  29621.711;  33056.863;  24136.230; 91;   4.006;  50.567; 112.298;  97.051;  50.085;  78.850;  22.372;   6.275;   5.734;   4.054;   3.998;  -3.625;   1.646;   0.438;;E06; 119.332;  57.208;  -1.448; 104.713; 185.824;2008-10-30T23:47:36.000;;;;;;;;;;
2008-10-31T16:46:39.193Z;1;1.0120e+01;0;     0.163;  8920.632;  29928.391; 0;  28568.004;  29928.391;  33374.418;  24453.787; 91;   4.006;  50.634; 112.364;  97.119;  50.150;  78.916;  22.372;   6.246;   5.704;   4.053;   3.997;  -3.626;   1.646;   0.436;;E06; 118.772;  56.946;  -1.465; 104.218; 185.848;2008-10-30T23:47:36.000;;;;;;;;;;
2008-10-31T16:46:47.193Z;1;1.0180e+01;0;     0.168;  8920.632;  30013.230; 0;  28656.873;  30013.230;  33462.227;  24541.594; 91;   4.005;  50.701; 112.429;  97.186;  50.215;  78.982;  22.373;   6.216;   5.675;   4.053;   3.997;  -3.626;   1.645;   0.434;;E06; 118.213;  56.683;  -1.481; 103.723; 185.872;2008-10-30T23:47:36.000;;;;;;;;;;
2008-10-31T16:46:55.193Z;1;1.0080e+01;0;     0.143;  8920.632;  29880.213; 0;  28517.529;  29880.213;  33324.547;  24403.916; 91;   4.005;  50.768; 112.495;  97.253;  50.279;  79.049;  22.373;   6.187;   5.645;   4.052;   3.997;  -3.626;   1.645;   0.431;;E06; 117.653;  56.421;  -1.497; 103.228; 185.896;2008-10-30T23:47:36.000;;;;;;;;;;
2008-10-31T16:47:04.193Z;1;1.0080e+01;0;     0.141;  8919.876;  29876.516; 0;  28513.891;  29876.516;  33320.516;  24400.643; 91;   4.005;  50.843; 112.569;  97.329;  50.352;  79.123;  22.374;   6.154;   5.612;   4.051;   3.997;  -3.626;   1.644;   0.429;;E06; 117.023;  56.126;  -1.515; 102.671; 185.923;2008-10-30T23:47:36.000;;;;;;;;;;
2008-10-31T16:47:12.193Z;1;1.0560e+01;0;     0.160;  8919.876;  30512.674; 0;  29179.771;  30512.674;  33978.578;  25058.703; 91;   4.005;  50.910; 112.634;  97.396;  50.417;  79.189;  22.375;   6.124;   5.583;   4.051;   3.997;  -3.627;   1.644;   0.427;;E06; 116.463;  55.864;  -1.530; 102.176; 185.947;2008-10-30T23:47:36.000;;;;;;;;;;
2008-10-31T16:47:20.193Z;1;1.0710e+01;0;     0.142;  8919.876;  30718.385; 0;  29394.812;  30718.385;  34191.168;  25271.293; 91;   4.004;  50.976; 112.700;  97.464;  50.482;  79.255;  22.375;   6.095;   5.553;   4.050;   3.996;  -3.627;   1.643;   0.425;;E06; 115.903;  55.602;  -1.546; 101.681; 185.972;2008-10-30T23:47:36.000;;;;;;;;;;
2008-10-31T16:47:28.193Z;1;1.0120e+01;0;     0.135;  8919.876;  29928.607; 0;  28568.469;  29928.607;  33374.441;  24454.564; 91;   4.004;  51.043; 112.766;  97.531;  50.546;  79.321;  22.376;   6.065;   5.524;   4.049;   3.996;  -3.627;   1.643;   0.423;;E06; 115.343;  55.340;  -1.561; 101.186; 185.996;2008-10-30T23:47:36.000;;;;;;;;;;
2008-10-31T16:47:36.193Z;1;1.0780e+01;0;     0.144;  8919.876;  30805.240; 0;  29485.566;  30805.240;  34280.898;  25361.023; 91;   4.004;  51.110; 112.831;  97.598;  50.611;  79.387;  22.376;   6.036;   5.494;   4.049;   3.996;  -3.627;   1.642;   0.421;;E06; 114.783;  55.077;  -1.576; 100.691; 186.020;2008-10-30T23:47:36.000;;;;;;;;;;
2008-10-31T16:47:44.193Z;1;1.0700e+01;0;     0.144;  8919.876;  30693.602; 0;  29368.912;  30693.602;  34165.562;  25245.686; 91;   4.004;  51.177; 112.897;  97.665;  50.676;  79.453;  22.377;   6.007;   5.465;   4.048;   3.996;  -3.628;   1.642;   0.419;;E06; 114.223;  54.815;  -1.591; 100.195; 186.044;2008-10-30T23:47:36.000;;;;;;;;;;
2008-10-31T16:47:52.193Z;1;9.7000e+00;0;     0.093;  8919.876;  29356.686; 0;  27968.746;  29356.686;  32782.047;  23862.172; 91;   4.003;  51.243; 112.963;  97.733;  50.741;  79.519;  22.377;   5.977;   5.435;   4.047;   3.996;  -3.628;   1.641;   0.417;;E06; 113.663;  54.553;  -1.605;  99.700; 186.068;2008-10-30T23:47:36.000;;;;;;;;;;
2008-10-31T16:48:00.193Z;1;1.0940e+01;0;     0.122;  8919.540;  31017.865; 0;  29707.740;  31017.865;  34500.398;  25580.857; 91;   4.003;  51.310; 113.028;  97.800;  50.805;  79.585;  22.378;   5.948;   5.406;   4.047;   3.995;  -3.628;   1.641;   0.415;;E06; 113.103;  54.291;  -1.620;  99.205; 186.092;2008-10-30T23:47:36.000;;;;;;;;;;
2008-10-31T16:48:08.192Z;1;1.1040e+01;0;     0.123;  8919.540;  31138.135; 0;  29833.291;  31138.135;  34624.562;  25705.023; 91;   4.003;  51.377; 113.094;  97.867;  50.870;  79.651;  22.378;   5.918;   5.376;   4.046;   3.995;  -3.628;   1.640;   0.413;;E06; 112.543;  54.028;  -1.634;  98.710; 186.116;2008-10-30T23:47:36.000;;;;;;;;;;
2008-10-31T16:48:16.192Z;1;1.1010e+01;0;     0.116;  8919.540;  31101.139; 0;  29794.674;  31101.139;  34586.371;  25666.832; 91;   4.003;  51.444; 113.160;  97.935;  50.934;  79.717;  22.379;   5.889;   5.346;   4.045;   3.995;  -3.629;   1.639;   0.410;;E06; 111.982;  53.766;  -1.648;  98.215; 186.140;2008-10-30T23:47:36.000;;;;;;;;;;
2008-10-31T16:48:24.192Z;1;1.1020e+01;0;     0.119;  8919.540;  31117.654; 0;  29811.914;  31117.654;  34603.422;  25683.883; 91;   4.003;  51.511; 113.225;  98.002;  50.999;  79.783;  22.380;   5.859;   5.317;   4.045;   3.995;  -3.629;   1.639;   0.408;;E06; 111.422;  53.504;  -1.662;  97.719; 186.164;2008-10-30T23:47:36.000;;;;;;;;;;
2008-10-31T16:48:32.192Z;1;1.1480e+01;0;     0.133;  8919.540;  31712.414; 0;  30432.203;  31712.414;  35217.023;  26297.482; 91;   4.002;  51.577; 113.291;  98.069;  51.064;  79.849;  22.380;   5.830;   5.287;   4.044;   3.995;  -3.629;   1.638;   0.406;;E06; 110.862;  53.242;  -1.675;  97.224; 186.188;2008-10-30T23:47:36.000;;;;;;;;;;
2008-10-31T16:48:40.192Z;1;1.0660e+01;0;     0.098;  8919.540;  30651.109; 0;  29324.604;  30651.109;  34121.562;  25202.021; 91;   4.002;  51.644; 113.357;  98.136;  51.128;  79.915;  22.381;   5.800;   5.258;   4.043;   3.994;  -3.629;   1.638;   0.404;;E06; 110.302;  52.979;  -1.688;  96.729; 186.212;2008-10-30T23:47:36.000;;;;;;;;;;
2008-10-31T16:48:48.192Z;1;1.1650e+01;0;     0.113;  8919.540;  31917.127; 0;  30645.469;  31917.127;  35428.051;  26508.510; 91;   4.002;  51.711; 113.422;  98.204;  51.193;  79.981;  22.381;   5.771;   5.228;   4.043;   3.994;  -3.630;   1.637;   0.402;;E06; 109.742;  52.717;  -1.701;  96.233; 186.237;2008-10-30T23:47:36.000;;;;;;;;;;
2008-10-31T16:48:56.192Z;1;1.1760e+01;0;     0.129;  8919.540;  32056.588; 0;  30790.691;  32056.588;  35571.766;  26652.225; 91;   4.002;  51.778; 113.488;  98.271;  51.257;  80.047;  22.382;   5.741;   5.199;   4.042;   3.994;  -3.630;   1.637;   0.400;;E06; 109.182;  52.454;  -1.714;  95.738; 186.261;2008-10-30T23:47:36.000;;;;;;;;;;
2008-10-31T16:49:04.192Z;1;1.0880e+01;0;     0.090;  8919.399;  30937.086; 0;  29623.430;  30937.086;  34416.945;  25497.545; 91;   4.002;  51.845; 113.554;  98.338;  51.322;  80.113;  22.382;   5.712;   5.169;   4.042;   3.994;  -3.630;   1.636;   0.398;;E06; 108.621;  52.192;  -1.727;  95.243; 186.285;2008-10-30T23:47:36.000;;;;;;;;;;
2008-10-31T16:49:12.192Z;1;1.1570e+01;0;     0.119;  8919.399;  31815.918; 0;  30540.088;  31815.918;  35323.691;  26404.289; 91;   4.001;  51.911; 113.619;  98.406;  51.386;  80.178;  22.383;   5.682;   5.140;   4.041;   3.994;  -3.630;   1.636;   0.396;;E06; 108.061;  51.930;  -1.739;  94.747; 186.309;2008-10-30T23:47:36.000;;;;;;;;;;
2008-10-31T16:49:20.192Z;1;1.1820e+01;0;     0.106;  8919.399;  32134.086; 0;  30871.408;  32134.086;  35651.570;  26732.170; 91;   4.001;  51.978; 113.685;  98.473;  51.451;  80.244;  22.383;   5.653;   5.110;   4.040;   3.993;  -3.630;   1.635;   0.394;;E06; 107.501;  51.667;  -1.751;  94.252; 186.333;2008-10-30T23:47:36.000;;;;;;;;;;
2008-10-31T16:49:28.192Z;1;1.1580e+01;0;     0.120;  8919.399;  31831.668; 0;  30556.496;  31831.668;  35339.926;  26420.525; 91;   4.001;  52.045; 113.750;  98.540;  51.515;  80.310;  22.384;   5.623;   5.081;   4.040;   3.993;  -3.631;   1.635;   0.392;;E06; 106.941;  51.405;  -1.763;  93.757; 186.357;2008-10-30T23:47:36.000;;;;;;;;;;
2008-10-31T16:49:36.192Z;1;1.1510e+01;0;     0.114;  8919.399;  31740.543; 0;  30461.557;  31740.543;  35245.984;  26326.584; 91;   4.001;  52.112; 113.816;  98.608;  51.580;  80.376;  22.384;   5.594;   5.051;   4.039;   3.993;  -3.631;   1.634;   0.390;;E06; 106.380;  51.143;  -1.775;  93.261; 186.381;2008-10-30T23:47:36.000;;;;;;;;;;
2008-10-31T16:49:44.192Z;1;1.1570e+01;0;     0.106;  8919.399;  31818.766; 0;  30543.055;  31818.766;  35326.625;  26407.225; 91;   4.000;  52.178; 113.882;  98.675;  51.644;  80.442;  22.385;   5.564;   5.021;   4.038;   3.993;  -3.631;   1.634;   0.388;;E06; 105.820;  50.880;  -1.787;  92.766; 186.405;2008-10-30T23:47:36.000;;;;;;;;;;
2008-10-31T16:49:52.192Z;1;1.1920e+01;0;     0.118;  8919.399;  32266.207; 0;  31008.908;  32266.207;  35787.664;  26868.264; 91;   4.000;  52.245; 113.947;  98.742;  51.709;  80.507;  22.386;   5.535;   4.992;   4.038;   3.993;  -3.631;   1.633;   0.386;;E06; 105.260;  50.618;  -1.798;  92.270; 186.429;2008-10-30T23:47:36.000;;;;;;;;;;
2008-10-31T16:50:00.192Z;1;1.1630e+01;0;     0.069;  8919.708;  31898.994; 0;  30626.535;  31898.994;  35409.410;  26489.701; 91;   4.000;  52.312; 114.013;  98.809;  51.773;  80.573;  22.386;   5.505;   4.962;   4.037;   3.992;  -3.632;   1.633;   0.384;;E06; 104.699;  50.355;  -1.809;  91.775; 186.453;2008-10-30T23:47:36.000;;;;;;;;;;
2008-10-31T16:50:08.192Z;1;1.1660e+01;0;     0.103;  8919.708;  31930.404; 0;  30659.248;  31930.404;  35441.781;  26522.074; 91;   4.000;  52.379; 114.079;  98.877;  51.839;  80.640;  22.387;   5.476;   4.933;   4.037;   3.992;  -3.632;   1.632;   0.381;;E06; 104.139;  50.093;  -1.820;  91.279; 186.477;2008-10-30T23:47:36.000;;;;;;;;;;
2008-10-31T16:50:16.192Z;1;1.1970e+01;0;     0.084;  8919.708;  32327.279; 0;  31072.363;  32327.279;  35850.648;  26930.941; 91;   4.000;  52.446; 114.144;  98.944;  51.905;  80.707;  22.387;   5.446;   4.903;   4.036;   3.992;  -3.632;   1.632;   0.379;;E06; 103.579;  49.830;  -1.830;  90.784; 186.502;2008-10-30T23:47:36.000;;;;;;;;;;
2008-10-31T16:50:24.192Z;1;1.2040e+01;0;     0.096;  8919.708;  32415.229; 0;  31163.855;  32415.229;  35941.215;  27021.508; 91;   3.999;  52.512; 114.210;  99.011;  51.970;  80.774;  22.388;   5.416;   4.873;   4.035;   3.992;  -3.632;   1.631;   0.377;;E06; 103.018;  49.568;  -1.841;  90.288; 186.526;2008-10-30T23:47:36.000;;;;;;;;;;
2008-10-31T16:50:32.191Z;1;1.2610e+01;0;     0.091;  8919.708;  33108.801; 0;  31884.660;  33108.801;  36654.914;  27735.205; 91;   3.999;  52.579; 114.276;  99.079;  52.036;  80.841;  22.388;   5.387;   4.844;   4.035;   3.992;  -3.632;   1.630;   0.375;;E06; 102.458;  49.306;  -1.851;  89.793; 186.550;2008-10-30T23:47:36.000;;;;;;;;;;
2008-10-31T16:50:40.191Z;1;1.1290e+01;0;     0.097;  8919.708;  31469.699; 0;  30179.145;  31469.699;  34966.758;  26047.049; 91;   3.999;  52.646; 114.341;  99.146;  52.102;  80.909;  22.389;   5.357;   4.814;   4.034;   3.992;  -3.633;   1.630;   0.373;;E06; 101.897;  49.043;  -1.861;  89.297; 186.574;2008-10-30T23:47:36.000;;;;;;;;;;
2008-10-31T16:50:48.191Z;1;1.2050e+01;0;     0.069;  8919.708;  32417.377; 0;  31166.090;  32417.377;  35943.430;  27023.721; 91;   3.999;  52.713; 114.407;  99.213;  52.168;  80.976;  22.389;   5.328;   4.785;   4.034;   3.991;  -3.633;   1.629;   0.371;;E06; 101.337;  48.781;  -1.871;  88.802; 186.598;2008-10-30T23:47:36.000;;;;;;;;;;
2008-10-31T16:50:56.191Z;1;1.2680e+01;0;     0.060;  8919.708;  33199.945; 0;  31979.293;  33199.945;  36748.637;  27828.928; 91;   3.999;  52.780; 114.473;  99.281;  52.234;  81.043;  22.390;   5.298;   4.755;   4.033;   3.991;  -3.633;   1.629;   0.369;;E06; 100.777;  48.518;  -1.881;  88.306; 186.622;2008-10-30T23:47:36.000;;;;;;;;;;
2008-10-31T16:51:04.191Z;1;1.2450e+01;0;     0.098;  8919.820;  32922.930; 0;  31691.578;  32922.930;  36463.770;  27543.947; 91;   3.998;  52.846; 114.538;  99.348;  52.299;  81.110;  22.391;   5.269;   4.725;   4.032;   3.991;  -3.633;   1.628;   0.367;;E06; 100.216;  48.256;  -1.890;  87.811; 186.646;2008-10-30T23:47:36.000;;;;;;;;;;
2008-10-31T16:51:12.191Z;1;1.2130e+01;0;     0.086;  8919.820;  32522.004; 0;  31274.871;  32522.004;  36051.180;  27131.359; 91;   3.998;  52.913; 114.604;  99.415;  52.365;  81.177;  22.391;   5.239;   4.696;   4.032;   3.991;  -3.634;   1.628;   0.365;;E06;  99.656;  47.993;  -1.899;  87.315; 186.670;2008-10-30T23:47:36.000;;;;;;;;;;
2008-10-31T16:51:20.191Z;1;1.3000e+01;0;     0.079;  8919.820;  33585.711; 0;  32379.574;  33585.711;  37145.191;  28225.371; 91;   3.998;  52.980; 114.670;  99.482;  52.431;  81.244;  22.392;   5.210;   4.666;   4.031;   3.991;  -3.634;   1.627;   0.363;;E06;  99.095;  47.731;  -1.908;  86.820; 186.694;2008-10-30T23:47:36.000;;;;;;;;;;
2008-10-31T16:51:28.191Z;1;1.3330e+01;0;     0.073;  8919.820;  33977.387; 0;  32785.660;  33977.387;  37547.527;  28627.707; 91;   3.998;  53.047; 114.735;  99.550;  52.497;  81.312;  22.392;   5.180;   4.637;   4.031;   3.990;  -3.634;   1.627;   0.361;;E06;  98.535;  47.468;  -1.917;  86.324; 186.718;2008-10-30T23:47:36.000;;;;;;;;;;
2008-10-31T16:51:36.191Z;1;1.3680e+01;0;     0.099;  8919.820;  34393.480; 0;  33216.688;  34393.480;  37974.668;  29054.850; 91;   3.998;  53.113; 114.801;  99.617;  52.563;  81.379;  22.393;   5.150;   4.607;   4.030;   3.990;  -3.634;   1.626;   0.359;;E06;  97.974;  47.206;  -1.925;  85.828; 186.742;2008-10-30T23:47:36.000;;;;;;;;;;
2008-10-31T16:51:44.191Z;1;1.3550e+01;0;     0.121;  8919.820;  34242.145; 0;  33059.965;  34242.145;  37819.348;  28899.527; 91;   3.997;  53.180; 114.867;  99.684;  52.629;  81.446;  22.393;   5.121;   4.577;   4.029;   3.990;  -3.634;   1.626;   0.357;;E06;  97.413;  46.943;  -1.933;  85.333; 186.767;2008-10-30T23:47:36.000;;;;;;;;;;
2008-10-31T16:51:52.191Z;1;1.3670e+01;0;     0.098;  8919.820;  34383.422; 0;  33206.273;  34383.422;  37964.348;  29044.527; 91;   3.997;  53.247; 114.932;  99.752;  52.695;  81.514;  22.394;   5.091;   4.548;   4.029;   3.990;  -3.635;   1.625;   0.355;;E06;  96.853;  46.681;  -1.942;  84.837; 186.791;2008-10-30T23:47:36.000;;;;;;;;;;
2008-10-31T16:52:00.191Z;1;1.3400e+01;0;     0.091;  8920.437;  34063.387; 0;  32874.613;  34063.387;  37636.020;  28715.582; 91;   3.997;  53.314; 114.998;  99.819;  52.761;  81.581;  22.394;   5.062;   4.518;   4.028;   3.990;  -3.635;   1.625;   0.352;;E06;  96.292;  46.418;  -1.949;  84.341; 186.815;2008-10-30T23:47:36.000;;;;;;;;;;
2008-10-31T16:52:08.191Z;1;1.4160e+01;0;     0.083;  8920.437;  34953.613; 0;  33796.168;  34953.613;  38549.430;  29628.994; 91;   3.997;  53.381; 115.063;  99.886;  52.827;  81.648;  22.395;   5.032;   4.489;   4.028;   3.989;  -3.635;   1.624;   0.350;;E06;  95.732;  46.156;  -1.957;  83.846; 186.839;2008-10-30T23:47:36.000;;;;;;;;;;
2008-10-31T16:52:16.191Z;1;1.4140e+01;0;     0.091;  8920.437;  34920.605; 0;  33762.027;  34920.605;  38515.586;  29595.148; 91;   3.997;  53.447; 115.129;  99.953;  52.893;  81.715;  22.396;   5.003;   4.459;   4.027;   3.989;  -3.635;   1.624;   0.348;;E06;  95.171;  45.893;  -1.964;  83.350; 186.863;2008-10-30T23:47:36.000;;;;;;;;;;
2008-10-31T16:52:24.191Z;1;1.4420e+01;0;     0.067;  8920.437;  35243.133; 0;  34095.516;  35243.133;  38846.230;  29925.793; 91;   3.996;  53.514; 115.195; 100.021;  52.959;  81.783;  22.396;   4.973;   4.429;   4.027;   3.989;  -3.635;   1.623;   0.346;;E06;  94.610;  45.630;  -1.972;  82.854; 186.887;2008-10-30T23:47:36.000;;;;;;;;;;
2008-10-31T16:52:32.191Z;1;1.4690e+01;0;     0.071;  8920.437;  35553.422; 0;  34416.152;  35553.422;  39164.184;  30243.746; 91;   3.996;  53.581; 115.260; 100.088;  53.025;  81.850;  22.397;   4.943;   4.400;   4.026;   3.989;  -3.636;   1.622;   0.344;;E06;  94.050;  45.368;  -1.979;  82.358; 186.911;2008-10-30T23:47:36.000;;;;;;;;;;
2008-10-31T16:52:48.190Z;1;1.5110e+01;0;     0.098;  8920.437;  36029.910; 0;  34908.168;  36029.910;  39652.176;  30731.738; 91;   3.996;  53.715; 115.392; 100.223;  53.157;  81.985;  22.398;   4.884;   4.340;   4.025;   3.989;  -3.636;   1.621;   0.340;;E06;  92.928;  44.843;  -1.992;  81.367; 186.959;2008-10-30T23:47:36.000;;;;;;;;;;
2008-10-31T16:52:56.190Z;1;1.5610e+01;0;     0.066;  8920.437;  36579.051; 0;  35474.680;  36579.051;  40214.188;  31293.752; 91;   3.996;  53.781; 115.457; 100.290;  53.223;  82.052;  22.398;   4.855;   4.311;   4.024;   3.988;  -3.636;   1.621;   0.338;;E06;  92.368;  44.580;  -1.998;  80.871; 186.983;2008-10-30T23:47:36.000;;;;;;;;;;
2008-10-31T16:53:04.190Z;1;1.5910e+01;0;     0.054;  8921.641;  36914.512; 0;  35820.184;  36914.512;  40557.695;  31636.055; 91;   3.995;  53.848; 115.523; 100.357;  53.289;  82.120;  22.399;   4.825;   4.281;   4.024;   3.988;  -3.637;   1.620;   0.336;;E06;  91.807;  44.318;  -2.004;  80.375; 187.008;2008-10-30T23:47:36.000;;;;;;;;;;
2008-10-31T16:53:12.190Z;1;1.5630e+01;0;     0.079;  8921.641;  36610.805; 0;  35507.117;  36610.805;  40247.051;  31325.410; 91;   3.995;  53.915; 115.589; 100.425;  53.355;  82.187;  22.399;   4.795;   4.251;   4.023;   3.988;  -3.637;   1.620;   0.334;;E06;  91.246;  44.055;  -2.010;  79.879; 187.032;2008-10-30T23:47:36.000;;;;;;;;;;
2008-10-31T16:53:20.190Z;1;1.6180e+01;0;     0.053;  8921.641;  37204.309; 0;  36118.762;  37204.309;  40854.004;  31932.363; 91;   3.995;  53.982; 115.654; 100.492;  53.421;  82.255;  22.400;   4.766;   4.222;   4.023;   3.988;  -3.637;   1.619;   0.332;;E06;  90.686;  43.792;  -2.016;  79.384; 187.056;2008-10-30T23:47:36.000;;;;;;;;;;
2008-10-31T16:53:36.190Z;1;1.6500e+01;0;     0.052;  8921.641;  37548.531; 0;  36473.230;  37548.531;  41205.824;  32284.186; 91;   3.994;  54.115; 115.786; 100.626;  53.554;  82.390;  22.401;   4.707;   4.162;   4.022;   3.987;  -3.637;   1.618;   0.328;;E06;  89.564;  43.267;  -2.026;  78.392; 187.104;2008-10-30T23:47:36.000;;;;;;;;;;
2008-10-31T16:53:44.190Z;1;1.6340e+01;0;     0.082;  8921.641;  37380.617; 0;  36300.344;  37380.617;  41034.223;  32112.582; 91;   3.994;  54.182; 115.851; 100.694;  53.620;  82.457;  22.402;   4.677;   4.133;   4.021;   3.987;  -3.638;   1.618;   0.325;;E06;  89.003;  43.005;  -2.032;  77.896; 187.128;2008-10-30T23:47:36.000;;;;;;;;;;
2008-10-31T16:54:00.190Z;1;1.7020e+01;0;     0.055;  8923.096;  38107.766; 0;  37048.348;  38107.766;  41777.570;  32854.477; 91;   3.994;  54.316; 115.983; 100.828;  53.753;  82.593;  22.403;   4.618;   4.073;   4.020;   3.987;  -3.638;   1.617;   0.321;;E06;  87.882;  42.479;  -2.041;  76.904; 187.176;2008-10-30T23:47:36.000;;;;;;;;;;
2008-10-31T16:54:08.190Z;1;1.7240e+01;0;     0.073;  8923.096;  38341.648; 0;  37288.879;  38341.648;  42016.387;  33093.289; 91;   3.994;  54.382; 116.048; 100.896;  53.819;  82.660;  22.403;   4.588;   4.044;   4.019;   3.987;  -3.638;   1.616;   0.319;;E06;  87.321;  42.217;  -2.045;  76.408; 187.200;2008-10-30T23:47:36.000;;;;;;;;;;
2008-10-31T16:54:24.190Z;1;1.7630e+01;0;     0.062;  8923.096;  38744.723; 0;  37703.207;  38744.723;  42427.812;  33504.719; 91;   3.993;  54.516; 116.179; 101.030;  53.951;  82.795;  22.404;   4.529;   3.984;   4.018;   3.986;  -3.639;   1.615;   0.315;;E06;  86.199;  41.691;  -2.053;  75.416; 187.248;2008-10-30T23:47:36.000;;;;;;;;;;
2008-10-31T16:54:32.190Z;1;1.7880e+01;0;     0.058;  8923.096;  39006.590; 0;  37972.258;  39006.590;  42695.012;  33771.918; 91;   3.993;  54.583; 116.245; 101.097;  54.018;  82.863;  22.405;   4.499;   3.955;   4.018;   3.986;  -3.639;   1.614;   0.313;;E06;  85.638;  41.429;  -2.057;  74.920; 187.273;2008-10-30T23:47:36.000;;;;;;;;;;
2008-10-31T16:54:48.190Z;1;1.8250e+01;0;     0.052;  8923.096;  39391.480; 0;  38367.527;  39391.480;  43087.609;  34164.512; 91;   3.993;  54.716; 116.376; 101.232;  54.150;  82.998;  22.406;   4.440;   3.895;   4.017;   3.986;  -3.639;   1.613;   0.309;;E06;  84.516;  40.904;  -2.064;  73.929; 187.321;2008-10-30T23:47:36.000;;;;;;;;;;
2008-10-31T16:54:56.190Z;1;1.8630e+01;0;     0.055;  8923.096;  39771.633; 0;  38757.723;  39771.633;  43475.219;  34552.125; 91;   3.993;  54.783; 116.442; 101.299;  54.217;  83.066;  22.407;   4.410;   3.866;   4.016;   3.986;  -3.639;   1.613;   0.307;;E06;  83.956;  40.641;  -2.067;  73.433; 187.345;2008-10-30T23:47:36.000;;;;;;;;;;
2008-10-31T16:55:12.189Z;1;1.8830e+01;0;     0.064;  8924.748;  39975.230; 0;  38966.242;  39975.230;  43683.297;  34758.547; 91;   3.992;  54.917; 116.573; 101.434;  54.349;  83.201;  22.408;   4.351;   3.806;   4.015;   3.985;  -3.640;   1.612;   0.303;;E06;  82.834;  40.116;  -2.072;  72.441; 187.393;2008-10-30T23:47:36.000;;;;;;;;;;
2008-10-31T16:55:20.189Z;1;1.9230e+01;0;     0.054;  8924.748;  40379.074; 0;  39380.434;  40379.074;  44094.828;  35170.078; 91;   3.992;  54.983; 116.639; 101.501;  54.416;  83.269;  22.408;   4.321;   3.777;   4.015;   3.985;  -3.640;   1.611;   0.301;;E06;  82.273;  39.853;  -2.075;  71.945; 187.417;2008-10-30T23:47:36.000;;;;;;;;;;
2008-10-31T16:55:36.189Z;1;1.9820e+01;0;     0.083;  8924.748;  40958.305; 0;  39974.137;  40958.305;  44684.809;  35760.062; 91;   3.992;  55.117; 116.770; 101.636;  54.549;  83.405;  22.409;   4.262;   3.717;   4.014;   3.985;  -3.640;   1.610;   0.296;;E06;  81.151;  39.328;  -2.079;  70.952; 187.465;2008-10-30T23:47:36.000;;;;;;;;;;